W7KKE-3 Weather Reports


Display with metric or nautical units.
time (UTC)temp
F
wind
direction
speed
MPH
gust
MPH
rain 1hr
in
rain 24hr
in
rain mn
in
humidity
%
barometer
mb
20210622034125 58 0 0.0 0.0 0.00 0.00 0.00 79 1014.0
20210622033625 58 273 0.0 3.0 0.00 0.00 0.00 77 1014.0
20210622033126 58 261 0.0 3.0 0.00 0.00 0.00 77 1013.9
20210622032625 58 338 0.0 3.0 0.00 0.00 0.00 77 1014.0
20210622032125 58 0 0.0 0.0 0.00 0.00 0.00 78 1013.9
20210622031625 58 0 0.0 0.0 0.00 0.00 0.00 78 1013.9
20210622031125 58 0 0.0 5.0 0.00 0.00 0.00 77 1013.9
20210622030626 58 315 0.0 5.0 0.00 0.00 0.00 79 1013.9
20210622030126 59 334 0.0 5.0 0.00 0.00 0.00 77 1013.9
20210622025625 59 317 1.0 7.0 0.00 0.00 0.00 79 1013.8
20210622025125 59 8 0.0 7.0 0.00 0.00 0.00 77 1013.7
20210622024627 59 327 2.0 7.0 0.00 0.00 0.00 77 1013.7
20210622024126 59 319 3.0 7.0 0.00 0.00 0.00 79 1013.6
20210622023625 59 14 3.0 7.0 0.00 0.00 0.00 79 1013.5
20210622023126 59 33 1.0 7.0 0.00 0.00 0.00 80 1013.4
20210622022625 59 29 4.0 7.0 0.00 0.00 0.00 79 1013.4
20210622022125 59 338 4.0 9.0 0.00 0.00 0.00 78 1013.3
20210622021625 59 9 5.0 9.0 0.00 0.00 0.00 79 1013.2
20210622021125 59 18 5.0 9.0 0.00 0.00 0.00 79 1013.2
20210622020625 59 33 7.0 10.0 0.00 0.00 0.00 77 1013.2
20210622020126 60 1 6.0 10.0 0.00 0.00 0.00 77 1013.2
20210622015625 60 12 5.0 10.0 0.00 0.00 0.00 79 1013.2
20210622015125 60 11 6.0 10.0 0.00 0.00 0.00 79 1013.2
20210622014625 60 2 5.0 10.0 0.00 0.00 0.00 79 1013.1
20210622014125 60 7 4.0 7.0 0.00 0.00 0.00 77 1013.2
20210622013625 60 357 4.0 8.0 0.00 0.00 0.00 77 1013.1
20210622013126 60 350 5.0 8.0 0.00 0.00 0.00 77 1013.2
20210622012625 60 14 5.0 8.0 0.00 0.00 0.00 78 1013.2
20210622012125 60 0 5.0 9.0 0.00 0.00 0.00 77 1013.2
20210622011625 60 348 6.0 9.0 0.00 0.00 0.00 77 1013.2
20210622011125 60 337 6.0 9.0 0.00 0.00 0.00 79 1013.2
20210622010626 60 25 5.0 9.0 0.00 0.00 0.00 77 1013.3
20210622010129 60 1 6.0 9.0 0.00 0.00 0.00 77 1013.3
20210622005625 60 343 5.0 9.0 0.00 0.00 0.00 77 1013.2
20210622005125 60 16 6.0 9.0 0.00 0.00 0.00 77 1013.3
20210622004625 60 351 5.0 9.0 0.00 0.00 0.00 78 1013.4
20210622004125 60 355 6.0 9.0 0.00 0.00 0.00 78 1013.4
20210622003625 60 19 4.0 7.0 0.00 0.00 0.00 77 1013.4
20210622003126 60 7 4.0 7.0 0.00 0.00 0.00 77 1013.4
20210622002625 60 348 3.0 7.0 0.00 0.00 0.00 77 1013.5
20210622002125 60 350 4.0 7.0 0.00 0.00 0.00 77 1013.5
20210622001625 60 354 5.0 7.0 0.00 0.00 0.00 78 1013.5
20210622001125 60 4 4.0 7.0 0.00 0.00 0.00 78 1013.5
20210622000625 60 333 4.0 7.0 0.00 0.00 0.00 78 1013.5
20210622000126 60 322 3.0 5.0 0.00 0.00 0.00 77 1013.5
20210621235625 60 310 3.0 8.0 0.00 0.00 0.00 79 1013.5
20210621235125 60 324 2.0 8.0 0.00 0.00 0.00 78 1013.6
20210621234625 60 357 4.0 8.0 0.00 0.00 0.00 78 1013.5
20210621234125 60 329 1.0 4.0 0.00 0.00 0.00 77 1013.5
20210621233625 60 0 0.0 5.0 0.00 0.00 0.00 77 1013.6
20210621233204 60 303 0.0 5.0 0.00 0.00 0.00 77 1013.6
20210621233126 60 303 0.0 5.0 0.00 0.00 0.00 77 1013.6
20210621232624 60 263 0.0 5.0 0.00 0.00 0.00 77 1013.6
20210621232124 60 263 3.0 5.0 0.00 0.00 0.00 77 1013.7
20210621231625 60 312 2.0 4.0 0.00 0.00 0.00 79 1013.6
20210621231125 60 267 2.0 4.0 0.00 0.00 0.00 77 1013.7
20210621230624 60 331 2.0 4.0 0.00 0.00 0.00 77 1013.8
20210621230125 60 275 2.0 4.0 0.00 0.00 0.00 77 1013.7
20210621225624 60 273 3.0 4.0 0.00 0.00 0.00 77 1013.8
20210621225124 60 271 0.0 4.0 0.00 0.00 0.00 78 1013.8
20210621224625 60 280 2.0 4.0 0.00 0.00 0.00 77 1013.9
20210621224124 60 284 2.0 4.0 0.00 0.00 0.00 77 1013.9
20210621223624 60 280 2.0 4.0 0.00 0.00 0.00 77 1013.9
20210621223125 60 267 3.0 4.0 0.00 0.00 0.00 77 1014.0
20210621222624 59 296 3.0 4.0 0.00 0.00 0.00 77 1013.9
20210621222124 59 266 1.0 3.0 0.00 0.00 0.00 77 1014.0
20210621221625 59 316 0.0 6.0 0.00 0.00 0.00 79 1014.0
20210621221124 59 267 1.0 6.0 0.00 0.00 0.00 77 1014.1
20210621220624 59 257 3.0 6.0 0.00 0.00 0.00 77 1014.1
20210621220125 59 253 3.0 6.0 0.00 0.00 0.00 77 1014.1
20210621215624 59 254 1.0 5.0 0.00 0.00 0.00 77 1014.2
20210621215124 59 320 0.0 5.0 0.00 0.00 0.00 77 1014.2
20210621214625 59 305 0.0 3.0 0.00 0.00 0.00 77 1014.1
20210621214124 59 287 0.0 6.0 0.00 0.00 0.00 77 1014.1
20210621213624 59 281 4.0 6.0 0.00 0.00 0.00 77 1014.1
20210621213125 59 270 0.0 6.0 0.00 0.00 0.00 77 1014.2
20210621212624 59 313 0.0 4.0 0.00 0.00 0.00 76 1014.2
20210621212124 59 274 1.0 3.0 0.00 0.00 0.00 77 1014.2
20210621211625 60 291 1.0 5.0 0.00 0.00 0.00 78 1014.2
20210621210125 60 263 4.0 5.0 0.00 0.00 0.00 77 1014.2
20210621205624 60 268 3.0 5.0 0.00 0.00 0.00 77 1014.2
20210621205124 60 275 0.0 8.0 0.00 0.00 0.00 77 1014.2
20210621204625 60 273 5.0 8.0 0.00 0.00 0.00 74 1014.3
20210621204124 60 277 4.0 8.0 0.00 0.00 0.00 74 1014.2
20210621203624 61 296 6.0 8.0 0.00 0.00 0.00 74 1014.2
20210621203125 61 253 3.0 7.0 0.00 0.00 0.00 74 1014.2
20210621202624 61 260 3.0 6.0 0.00 0.00 0.00 76 1014.2
20210621202124 61 264 4.0 6.0 0.00 0.00 0.00 74 1014.2
20210621201625 61 306 3.0 5.0 0.00 0.00 0.00 75 1014.2
20210621201205 61 298 3.0 7.0 0.00 0.00 0.00 74 1014.2
20210621201124 61 298 3.0 7.0 0.00 0.00 0.00 74 1014.2
20210621200624 62 301 2.0 7.0 0.00 0.00 0.00 74 1014.2
20210621200125 62 330 3.0 7.0 0.00 0.00 0.00 74 1014.3
20210621195624 63 323 4.0 9.0 0.00 0.00 0.00 77 1014.2
20210621195124 62 350 5.0 9.0 0.00 0.00 0.00 76 1014.1
20210621194625 62 12 6.0 9.0 0.00 0.00 0.00 75 1014.1
20210621194124 63 11 7.0 8.0 0.00 0.00 0.00 74 1014.2
20210621193128 64 344 6.0 12.0 0.00 0.00 0.00 76 1014.1
20210621192624 64 345 5.0 12.0 0.00 0.00 0.00 77 1014.0
20210621192124 63 337 6.0 12.0 0.00 0.00 0.00 79 1014.0
20210621191625 63 336 6.0 12.0 0.00 0.00 0.00 79 1014.0
20210621191124 62 5 6.0 10.0 0.00 0.00 0.00 80 1014.0
20210621190624 62 324 5.0 10.0 0.00 0.00 0.00 79 1013.9
20210621190125 62 319 6.0 10.0 0.00 0.00 0.00 80 1014.0
20210621185624 61 308 5.0 9.0 0.00 0.00 0.00 80 1014.1
20210621185124 61 310 4.0 6.0 0.00 0.00 0.00 80 1014.0
20210621184624 61 322 3.0 7.0 0.00 0.00 0.00 80 1014.0
20210621184124 61 341 1.0 7.0 0.00 0.00 0.00 81 1014.1
20210621183624 60 306 2.0 7.0 0.00 0.00 0.00 80 1014.1
20210621183125 60 340 2.0 5.0 0.00 0.00 0.00 80 1014.0
20210621182624 60 338 3.0 4.0 0.00 0.00 0.00 80 1014.1
20210621182124 60 317 3.0 4.0 0.00 0.00 0.00 81 1014.0
20210621181624 59 326 3.0 4.0 0.00 0.00 0.00 80 1014.0
20210621181124 59 316 3.0 5.0 0.00 0.00 0.00 80 1014.0
20210621180624 59 331 4.0 5.0 0.00 0.00 0.00 82 1014.1
20210621175625 59 296 0.0 3.0 0.00 0.00 0.00 80 1014.1
20210621175125 59 301 0.0 2.0 0.00 0.00 0.00 81 1014.1
20210621174624 59 0 0.0 2.0 0.00 0.00 0.00 80 1014.1
20210621174124 59 334 0.0 2.0 0.00 0.00 0.00 82 1014.1
20210621173624 59 0 0.0 5.0 0.00 0.00 0.00 80 1014.1
20210621173125 59 309 0.0 5.0 0.00 0.00 0.00 83 1014.2
20210621172624 59 326 0.0 5.0 0.00 0.00 0.00 83 1014.2
20210621172124 58 319 4.0 4.0 0.00 0.00 0.00 83 1014.2
20210621171624 58 0 0.0 0.0 0.00 0.00 0.00 83 1014.3
20210621171124 58 0 0.0 0.0 0.00 0.00 0.00 83 1014.4
20210621170625 58 0 0.0 0.0 0.00 0.00 0.00 83 1014.4
20210621170125 58 0 0.0 0.0 0.00 0.00 0.00 83 1014.3
20210621165624 58 0 0.0 0.0 0.00 0.00 0.00 82 1014.3
20210621165125 58 0 0.0 0.0 0.00 0.00 0.00 83 1014.3
20210621164126 57 0 0.0 0.0 0.00 0.00 0.00 82 1014.2
20210621163625 57 0 0.0 0.0 0.00 0.00 0.00 82 1014.3
20210621163125 57 0 0.0 0.0 0.00 0.00 0.00 82 1014.2
20210621162624 57 0 0.0 0.0 0.00 0.00 0.00 82 1014.1
20210621162124 57 0 0.0 0.0 0.00 0.00 0.00 81 1014.0
20210621161626 57 0 0.0 0.0 0.00 0.00 0.00 80 1014.0
20210621161123 57 0 0.0 3.0 0.00 0.00 0.00 82 1014.0
20210621160623 57 320 0.0 3.0 0.00 0.00 0.00 82 1013.9
20210621160124 57 299 0.0 3.0 0.00 0.00 0.00 82 1013.8
20210621155125 57 324 0.0 5.0 0.00 0.00 0.00 83 1013.7
20210621154624 57 22 0.0 5.0 0.00 0.00 0.00 84 1013.7
20210621154124 57 357 3.0 4.0 0.00 0.00 0.00 83 1013.6
20210621153624 57 0 1.0 1.0 0.00 0.00 0.00 83 1013.6
20210621153125 57 0 0.0 0.0 0.00 0.00 0.00 83 1013.6
20210621152624 57 0 0.0 0.0 0.00 0.00 0.00 83 1013.6
20210621150624 57 0 0.0 0.0 0.00 0.00 0.00 83 1013.8
20210621150125 57 0 0.0 0.0 0.00 0.00 0.00 82 1013.8
20210621145624 57 0 0.0 0.0 0.00 0.00 0.00 83 1013.8
20210621145124 57 0 0.0 0.0 0.00 0.00 0.00 83 1013.8
20210621144624 57 0 0.0 0.0 0.00 0.00 0.00 82 1013.8
20210621144124 57 0 0.0 0.0 0.00 0.00 0.00 80 1013.8
20210621143624 57 0 0.0 0.0 0.00 0.00 0.00 80 1013.8
20210621143125 57 0 0.0 0.0 0.00 0.00 0.00 82 1013.7
20210621142625 57 0 0.0 0.0 0.00 0.00 0.00 81 1013.8
20210621142124 57 0 0.0 2.0 0.00 0.00 0.00 82 1013.8
20210621141624 57 0 0.0 2.0 0.00 0.00 0.00 83 1013.7
20210621141124 57 317 0.0 2.0 0.00 0.00 0.00 83 1013.7
20210621140624 57 0 0.0 0.0 0.00 0.00 0.00 83 1013.7
20210621140125 57 14 0.0 4.0 0.00 0.00 0.00 83 1013.6
20210621135624 57 319 2.0 4.0 0.00 0.00 0.00 83 1013.6
20210621135124 57 333 0.0 4.0 0.00 0.00 0.00 80 1013.6
20210621134624 57 0 0.0 0.0 0.00 0.00 0.00 80 1013.6
20210621134124 57 0 0.0 0.0 0.00 0.00 0.00 81 1013.5
20210621133624 57 0 0.0 0.0 0.00 0.00 0.00 80 1013.4
20210621133125 57 0 0.0 0.0 0.00 0.00 0.00 81 1013.4
20210621132624 57 0 0.0 0.0 0.00 0.00 0.00 80 1013.3
20210621132124 57 0 0.0 0.0 0.00 0.00 0.00 80 1013.3
20210621131624 57 0 0.0 0.0 0.00 0.00 0.00 82 1013.2
20210621131124 57 0 0.0 0.0 0.00 0.00 0.00 83 1013.2
20210621130624 57 0 0.0 0.0 0.00 0.00 0.00 82 1013.2
20210621130125 57 0 0.0 0.0 0.00 0.00 0.00 82 1013.2
20210621125624 57 0 0.0 0.0 0.00 0.00 0.00 82 1013.1
20210621125124 57 0 0.0 0.0 0.00 0.00 0.00 82 1013.1
20210621124624 57 0 0.0 0.0 0.00 0.00 0.00 82 1013.1
20210621124124 57 0 0.0 0.0 0.00 0.00 0.00 82 1013.1
20210621123624 57 0 0.0 0.0 0.00 0.00 0.00 82 1013.1
20210621123125 57 0 0.0 0.0 0.00 0.00 0.00 80 1013.1
20210621122624 57 0 0.0 0.0 0.00 0.00 0.00 80 1013.1
20210621122124 57 0 0.0 0.0 0.00 0.00 0.00 80 1013.1
20210621121624 57 0 0.0 0.0 0.00 0.00 0.00 80 1013.2
20210621121124 57 0 0.0 0.0 0.00 0.00 0.00 81 1013.1
20210621120624 57 0 0.0 0.0 0.00 0.00 0.00 81 1013.1
20210621120125 57 0 0.0 0.0 0.00 0.00 0.00 80 1013.1
20210621115624 58 0 0.0 0.0 0.00 0.00 0.00 83 1013.0
20210621115124 57 0 0.0 0.0 0.00 0.00 0.00 83 1013.0
20210621114624 57 0 0.0 0.0 0.00 0.00 0.00 82 1013.1
20210621114124 57 0 0.0 0.0 0.00 0.00 0.00 82 1013.0
20210621113624 57 0 0.0 0.0 0.00 0.00 0.00 82 1013.0
20210621113125 57 0 0.0 0.0 0.00 0.00 0.00 82 1013.0
20210621112624 57 0 0.0 0.0 0.00 0.00 0.00 82 1012.8
20210621112124 57 0 0.0 0.0 0.00 0.00 0.00 82 1012.8
20210621111624 57 0 0.0 0.0 0.00 0.00 0.00 82 1012.8
20210621111124 57 0 0.0 0.0 0.00 0.00 0.00 82 1012.8
20210621110624 57 0 0.0 0.0 0.00 0.00 0.00 82 1012.8
20210621110125 57 0 0.0 0.0 0.00 0.00 0.00 81 1012.8
20210621105624 57 0 0.0 0.0 0.00 0.00 0.00 82 1012.8
20210621105124 57 0 0.0 0.0 0.00 0.00 0.00 80 1012.8
20210621104624 57 0 0.0 0.0 0.00 0.00 0.00 80 1012.7
20210621104124 57 0 0.0 0.0 0.00 0.00 0.00 80 1012.8
20210621103624 57 0 0.0 0.0 0.00 0.00 0.00 80 1012.8
20210621103125 57 0 0.0 0.0 0.00 0.00 0.00 80 1012.8
20210621102624 57 0 0.0 0.0 0.00 0.00 0.00 83 1012.7
20210621102124 57 0 0.0 0.0 0.00 0.00 0.00 82 1012.7
20210621101624 57 0 0.0 0.0 0.00 0.00 0.00 80 1012.7
20210621101124 57 0 0.0 0.0 0.00 0.00 0.00 82 1012.7
20210621100624 57 0 0.0 0.0 0.00 0.00 0.00 80 1012.6
20210621100125 57 0 0.0 0.0 0.00 0.00 0.00 80 1012.7
20210621095624 57 0 0.0 0.0 0.00 0.00 0.00 81 1012.6
20210621095124 57 0 0.0 0.0 0.00 0.00 0.00 81 1012.6
20210621094624 57 0 0.0 0.0 0.00 0.00 0.00 80 1012.7
20210621094124 57 0 0.0 0.0 0.00 0.00 0.00 81 1012.7
20210621093624 57 0 0.0 0.0 0.00 0.00 0.00 80 1012.7
20210621093125 57 0 0.0 0.0 0.00 0.00 0.00 81 1012.8
20210621092624 57 0 0.0 0.0 0.00 0.00 0.00 80 1012.8
20210621092124 56 0 0.0 0.0 0.00 0.00 0.00 81 1012.7
20210621091624 56 0 0.0 0.0 0.00 0.00 0.00 80 1012.9
20210621091124 56 0 0.0 0.0 0.00 0.00 0.00 80 1012.8
20210621090624 56 0 0.0 0.0 0.00 0.00 0.00 80 1012.8
20210621090125 56 0 0.0 0.0 0.00 0.00 0.00 79 1012.7
20210621085624 56 0 0.0 0.0 0.00 0.00 0.00 77 1012.7
20210621085124 56 0 0.0 0.0 0.00 0.00 0.00 77 1012.8
20210621084624 56 0 0.0 0.0 0.00 0.00 0.00 77 1012.7
20210621084124 56 0 0.0 0.0 0.00 0.00 0.00 77 1012.8
20210621083624 56 0 0.0 0.0 0.00 0.00 0.00 77 1012.8
20210621083125 56 0 0.0 0.0 0.00 0.00 0.00 78 1012.8
20210621082624 56 0 0.0 0.0 0.00 0.00 0.00 78 1012.8
20210621082124 56 0 0.0 0.0 0.00 0.00 0.00 77 1012.8
20210621081624 56 0 0.0 0.0 0.00 0.00 0.00 77 1012.7
20210621081124 56 0 0.0 0.0 0.00 0.00 0.00 77 1012.6
20210621080624 56 0 0.0 0.0 0.00 0.00 0.00 77 1012.6
20210621080124 56 0 0.0 0.0 0.00 0.00 0.00 77 1012.6
20210621075624 56 0 0.0 0.0 0.00 0.00 0.00 77 1012.6
20210621075124 56 0 0.0 0.0 0.00 0.00 0.00 78 1012.6
20210621074624 56 0 0.0 0.0 0.00 0.00 0.00 77 1012.6
20210621074124 56 0 0.0 0.0 0.00 0.00 0.00 77 1012.6
20210621073624 56 0 0.0 0.0 0.00 0.00 0.00 77 1012.6
20210621073124 56 0 0.0 0.0 0.00 0.00 0.00 77 1012.6
20210621072623 56 0 0.0 0.0 0.00 0.00 0.00 77 1012.5
20210621072124 56 0 0.0 0.0 0.00 0.00 0.00 77 1012.5
20210621071624 56 0 0.0 0.0 0.00 0.00 0.00 77 1012.6
20210621071124 56 0 0.0 0.0 0.00 0.00 0.00 77 1012.6
20210621070624 56 0 0.0 0.0 0.00 0.00 0.00 77 1012.7
20210621070124 56 0 0.0 0.0 0.00 0.00 0.00 77 1012.6
20210621065624 56 0 0.0 0.0 0.00 0.00 0.00 77 1012.5
20210621065124 56 0 0.0 0.0 0.00 0.00 0.00 77 1012.5
20210621064624 57 0 0.0 0.0 0.00 0.00 0.00 77 1012.5
20210621064123 57 0 0.0 0.0 0.00 0.00 0.00 77 1012.5
20210621063623 57 0 0.0 0.0 0.00 0.00 0.00 77 1012.5
20210621063124 57 0 0.0 0.0 0.00 0.00 0.00 77 1012.6
20210621062623 57 0 0.0 0.0 0.00 0.00 0.00 77 1012.5
20210621062123 57 0 0.0 0.0 0.00 0.00 0.00 77 1012.6
20210621061624 57 0 0.0 1.0 0.00 0.00 0.00 77 1012.6
20210621061123 57 0 0.0 1.0 0.00 0.00 0.00 77 1012.6
20210621060623 57 308 0.0 1.0 0.00 0.00 0.00 77 1012.7
20210621060124 57 0 0.0 0.0 0.00 0.00 0.00 77 1012.7
20210621055623 58 0 0.0 0.0 0.00 0.00 0.00 77 1012.6
20210621055123 58 324 0.0 7.0 0.00 0.00 0.00 77 1012.7
20210621054624 58 357 0.0 7.0 0.00 0.00 0.00 77 1012.7
20210621054123 58 355 3.0 7.0 0.00 0.00 0.00 77 1012.7
20210621053623 58 5 1.0 5.0 0.00 0.00 0.00 77 1012.7
20210621053124 58 331 3.0 7.0 0.00 0.00 0.00 77 1012.7
20210621052623 58 4 1.0 7.0 0.00 0.00 0.00 77 1012.6
20210621052123 58 14 2.0 7.0 0.00 0.00 0.00 77 1012.6
20210621051624 58 11 3.0 9.0 0.00 0.00 0.00 78 1012.7
20210621051123 59 28 5.0 9.0 0.00 0.00 0.00 77 1012.7
20210621050623 59 11 3.0 9.0 0.00 0.00 0.00 78 1012.7
20210621050124 59 16 2.0 7.0 0.00 0.00 0.00 76 1012.7
20210621045623 59 19 3.0 7.0 0.00 0.00 0.00 74 1012.7
20210621045124 59 40 0.0 8.0 0.00 0.00 0.00 75 1012.6
20210621044624 59 4 3.0 8.0 0.00 0.00 0.00 76 1012.6
20210621044123 59 9 1.0 8.0 0.00 0.00 0.00 74 1012.6
20210621043623 60 355 5.0 7.0 0.00 0.00 0.00 74 1012.6
20210621043124 60 12 1.0 5.0 0.00 0.00 0.00 74 1012.5
20210621042623 60 7 1.0 11.0 0.00 0.00 0.00 74 1012.5
20210621042123 60 11 7.0 11.0 0.00 0.00 0.00 74 1012.5
20210621041624 60 21 7.0 11.0 0.00 0.00 0.00 74 1012.5
20210621041123 60 33 6.0 10.0 0.00 0.00 0.00 75 1012.5
20210621040623 60 19 4.0 10.0 0.00 0.00 0.00 74 1012.4
20210621040124 60 14 7.0 10.0 0.00 0.00 0.00 74 1012.4
20210621035623 61 57 5.0 9.0 0.00 0.00 0.00 74 1012.4
20210621035123 61 72 5.0 13.0 0.00 0.00 0.00 74 1012.4
20210621034624 61 347 4.0 13.0 0.00 0.00 0.00 74 1012.4